Location: Madrid
(40.4000°N, 3.6830°W)
Time: 11:53:18
(UTC+01:00)

ISS - Pass Details

Date: 17 March 2019
Orbit: 408 x 411 km, 51.6° (Epoch: 24 March)

Event Time Altitude Azimuth Distance (km) Brightness Sun altitude
Exits shadow 05:33:05 34° 141° (SE) 686 -2.6 -21.6°
Drops below altitude 10° 05:35:07 10° 134° (SE) 1,464 -0.7 -21.3°
Sets 05:37:11 0° 132° (SE) 2,322 0.4 -20.9°
